Location: Klinovec
(50.3970°N, 12.9600°E)
Time: 05:49:32
(UTC+01:00)

N. Korean satellite - Pass Details

Date: 20 November 2019
Orbit: 455 x 507 km, 97.2° (Epoch: 14 December)

Event Time Altitude Azimuth Distance (km) Brightness Sun altitude
Rises 05:06:58 0° 26° (NNE) 2,621 10.6 -22.3°
Reaches altitude 10° 05:09:37 10° 46° (NE) 1,725 9.9 -21.9°
Maximum altitude 05:12:12 18° 91° (E) 1,295 9.7 -21.5°
Drops below altitude 10° 05:14:46 10° 135° (SE) 1,699 10.0 -21.1°
Sets 05:17:20 0° 155° (SSE) 2,567 10.7 -20.7°
